Back to catalog

FENGYUN 1C DEB

AlivePO
NORAD 32185·DEBRIS·🇨🇳 China

Launched May 10, 1999 from Taiyuan Satellite Launch Center

Loading…

Next Passes (next 24 hours)

TLE

FreshSource: Space-Track

Epoch: Sep 11, 2026, 22:40 UTC

1 32185U 99025CUF 26254.94496553  .00384062  00000-0  36493-2 0  9998
2 32185  98.8550 158.0822 0048416 159.2410 201.0825 15.64224715991854

Track FENGYUN 1C DEB in real time with AllMySat

Download on the App Store